Hourly Weather Porto Alegre

Today, 31 October, Saturday

Time Temperature Precipitation Wind Pressure Humidity
00:00 +17°C° 0 mm 3 mps 765 mmHg 67%
01:00 +17°C° 0 mm 3 mps 764 mmHg 68%
02:00 +16°C° 0 mm 2 mps 764 mmHg 69%
03:00 +16°C° 0 mm 2 mps 764 mmHg 70%
04:00 +16°C° 0 mm 2 mps 764 mmHg 72%
05:00 +16°C° 0 mm 1 mps 763 mmHg 73%
06:00 +16°C° 0 mm 1 mps 763 mmHg 75%
07:00 +17°C° 0 mm 2 mps 764 mmHg 69%
08:00 +19°C° 0 mm 2 mps 764 mmHg 63%
09:00 +20°C° 0 mm 3 mps 764 mmHg 57%
10:00 +21°C° 0 mm 3 mps 764 mmHg 55%
11:00 +22°C° 0 mm 4 mps 764 mmHg 53%
12:00 +23°C° 0 mm 4 mps 763 mmHg 50%
13:00 +23°C° 0 mm 5 mps 763 mmHg 50%
14:00 +23°C° 0 mm 5 mps 763 mmHg 50%
15:00 +23°C° 0 mm 6 mps 762 mmHg 50%
16:00 +22°C° 0 mm 5 mps 762 mmHg 54%
17:00 +21°C° 0 mm 5 mps 763 mmHg 58%
18:00 +20°C° 0 mm 5 mps 763 mmHg 62%
19:00 +19°C° 0 mm 4 mps 763 mmHg 66%
20:00 +18°C° 0 mm 4 mps 763 mmHg 71%
21:00 +17°C° 0 mm 3 mps 764 mmHg 75%
22:00 +17°C° 0 mm 3 mps 764 mmHg 77%
23:00 +17°C° 0 mm 2 mps 763 mmHg 78%

Tomorrow, 1 November, Sunday

Time Temperature Precipitation Wind Pressure Humidity
00:00 +16°C° 0 mm 2 mps 763 mmHg 80%
01:00 +16°C° 0 mm 2 mps 763 mmHg 80%
02:00 +16°C° 0 mm 1 mps 763 mmHg 81%
03:00 +15°C° 0 mm 1 mps 762 mmHg 82%
04:00 +15°C° 0 mm 1 mps 762 mmHg 83%
05:00 +14°C° 0 mm 0 mps 762 mmHg 83%
06:00 +14°C° 0 mm 0 mps 763 mmHg 83%
07:00 +18°C° 0 mm 1 mps 763 mmHg 75%
08:00 +20°C° 0 mm 1 mps 763 mmHg 68%
09:00 +22°C° 0 mm 1 mps 763 mmHg 60%
10:00 +21°C° 0.2 mm 2 mps 763 mmHg 62%
11:00 +21°C° 0.2 mm 3 mps 762 mmHg 63%
12:00 +21°C° 0.2 mm 4 mps 762 mmHg 65%
13:00 +22°C° 0.1 mm 4 mps 762 mmHg 63%
14:00 +22°C° 0.1 mm 5 mps 761 mmHg 60%
15:00 +22°C° 0.1 mm 5 mps 761 mmHg 58%
16:00 +21°C° 0 mm 5 mps 761 mmHg 59%
17:00 +21°C° 0 mm 4 mps 761 mmHg 61%
18:00 +20°C° 0 mm 4 mps 761 mmHg 63%
19:00 +19°C° 0 mm 4 mps 761 mmHg 64%
20:00 +18°C° 0 mm 3 mps 762 mmHg 66%
21:00 +17°C° 0 mm 3 mps 762 mmHg 67%
22:00 +17°C° 0 mm 3 mps 762 mmHg 68%
23:00 +16°C° 0 mm 2 mps 761 mmHg 69%

Day after tomorrow, 2 November, Monday

Time Temperature Precipitation Wind Pressure Humidity
00:00 +16°C° 0 mm 2 mps 761 mmHg 70%
01:00 +16°C° 0 mm 2 mps 761 mmHg 71%
02:00 +15°C° 0 mm 1 mps 761 mmHg 72%
03:00 +15°C° 0 mm 1 mps 760 mmHg 74%
04:00 +15°C° 0 mm 1 mps 760 mmHg 74%
05:00 +15°C° 0 mm 1 mps 761 mmHg 75%
06:00 +15°C° 0 mm 1 mps 761 mmHg 75%
07:00 +18°C° 0 mm 1 mps 761 mmHg 68%
08:00 +20°C° 0 mm 1 mps 761 mmHg 60%
09:00 +20°C° 0 mm 2 mps 761 mmHg 53%
10:00 +23°C° 0 mm 2 mps 761 mmHg 49%
11:00 +24°C° 0 mm 2 mps 761 mmHg 46%
12:00 +25°C° 0 mm 3 mps 760 mmHg 43%
13:00 +25°C° 0 mm 3 mps 760 mmHg 44%
14:00 +25°C° 0 mm 4 mps 759 mmHg 44%
15:00 +25°C° 0 mm 5 mps 759 mmHg 45%
16:00 +23°C° 0 mm 4 mps 759 mmHg 50%
17:00 +21°C° 0 mm 4 mps 759 mmHg 54%
18:00 +20°C° 0 mm 4 mps 759 mmHg 58%
19:00 +19°C° 0 mm 4 mps 760 mmHg 64%
20:00 +19°C° 0 mm 4 mps 760 mmHg 70%
21:00 +18°C° 0 mm 3 mps 760 mmHg 75%
22:00 +17°C° 0 mm 3 mps 760 mmHg 77%
23:00 +17°C° 0 mm 3 mps 760 mmHg 79%

3 November, Tuesday

Time Temperature Precipitation Wind Pressure Humidity
00:00 +17°C° 0 mm 2 mps 760 mmHg 81%
01:00 +16°C° 0.1 mm 3 mps 760 mmHg 82%
02:00 +16°C° 0.1 mm 3 mps 760 mmHg 83%
03:00 +16°C° 0.1 mm 3 mps 760 mmHg 84%
04:00 +16°C° 0 mm 3 mps 760 mmHg 83%
05:00 +16°C° 0 mm 3 mps 761 mmHg 83%
06:00 +16°C° 0 mm 3 mps 761 mmHg 82%
07:00 +17°C° 0 mm 3 mps 761 mmHg 77%
08:00 +19°C° 0 mm 3 mps 761 mmHg 71%
09:00 +20°C° 0 mm 4 mps 762 mmHg 66%
10:00 +21°C° 0 mm 4 mps 762 mmHg 60%
11:00 +22°C° 0 mm 4 mps 761 mmHg 55%
12:00 +25°C° 0 mm 4 mps 761 mmHg 49%
13:00 +25°C° 0 mm 5 mps 761 mmHg 50%
14:00 +25°C° 0 mm 5 mps 761 mmHg 50%
15:00 +24°C° 0 mm 6 mps 761 mmHg 50%
16:00 +23°C° 0 mm 6 mps 761 mmHg 55%
17:00 +21°C° 0 mm 6 mps 761 mmHg 60%
18:00 +20°C° 0 mm 6 mps 761 mmHg 64%
19:00 +19°C° 0 mm 5 mps 761 mmHg 66%
20:00 +17°C° 0 mm 5 mps 762 mmHg 68%
21:00 +17°C° 0 mm 5 mps 762 mmHg 69%
22:00 +16°C° 0 mm 5 mps 762 mmHg 70%
23:00 +16°C° 0 mm 5 mps 762 mmHg 71%

4 November, Wednesday

Time Temperature Precipitation Wind Pressure Humidity
00:00 +16°C° 0 mm 5 mps 762 mmHg 72%
01:00 +17°C° 0 mm 4 mps 762 mmHg 73%
02:00 +15°C° 0 mm 4 mps 762 mmHg 74%
03:00 +15°C° 0 mm 4 mps 762 mmHg 74%
04:00 +15°C° 0 mm 4 mps 762 mmHg 75%
05:00 +15°C° 0 mm 4 mps 762 mmHg 75%
06:00 +15°C° 0 mm 4 mps 763 mmHg 76%
07:00 +18°C° 0 mm 4 mps 763 mmHg 69%
08:00 +19°C° 0 mm 4 mps 763 mmHg 63%
09:00 +21°C° 0 mm 4 mps 763 mmHg 57%
10:00 +22°C° 0 mm 4 mps 763 mmHg 53%
11:00 +25°C° 0 mm 4 mps 762 mmHg 49%
12:00 +26°C° 0 mm 4 mps 762 mmHg 45%
13:00 +26°C° 0 mm 5 mps 762 mmHg 45%
14:00 +26°C° 0 mm 5 mps 761 mmHg 44%
15:00 +26°C° 0 mm 6 mps 761 mmHg 44%
16:00 +24°C° 0 mm 6 mps 761 mmHg 48%
17:00 +23°C° 0 mm 6 mps 761 mmHg 52%
18:00 +21°C° 0 mm 6 mps 761 mmHg 56%
19:00 +20°C° 0 mm 5 mps 761 mmHg 59%
20:00 +19°C° 0 mm 5 mps 761 mmHg 62%
21:00 +17°C° 0 mm 5 mps 761 mmHg 65%
22:00 +18°C° 0 mm 4 mps 761 mmHg 67%
23:00 +17°C° 0 mm 4 mps 761 mmHg 68%

5 November, Thursday

Time Temperature Precipitation Wind Pressure Humidity
00:00 +17°C° 0 mm 3 mps 761 mmHg 70%
01:00 +17°C° 0 mm 3 mps 761 mmHg 71%
02:00 +16°C° 0 mm 2 mps 761 mmHg 71%
03:00 +16°C° 0 mm 2 mps 760 mmHg 72%
04:00 +16°C° 0 mm 2 mps 760 mmHg 73%
05:00 +15°C° 0 mm 2 mps 761 mmHg 73%
06:00 +15°C° 0 mm 2 mps 761 mmHg 74%
07:00 +17°C° 0 mm 2 mps 761 mmHg 66%
08:00 +20°C° 0 mm 2 mps 761 mmHg 58%
09:00 +23°C° 0 mm 2 mps 761 mmHg 49%
10:00 +25°C° 0 mm 2 mps 760 mmHg 44%
11:00 +27°C° 0 mm 1 mps 760 mmHg 38%
12:00 +29°C° 0 mm 1 mps 759 mmHg 32%
13:00 +30°C° 0 mm 2 mps 759 mmHg 31%
14:00 +30°C° 0 mm 2 mps 758 mmHg 31%
15:00 +31°C° 0 mm 3 mps 757 mmHg 30%
16:00 +29°C° 0 mm 3 mps 757 mmHg 38%
17:00 +27°C° 0 mm 4 mps 757 mmHg 46%
18:00 +25°C° 0 mm 4 mps 757 mmHg 53%
19:00 +24°C° 0 mm 3 mps 757 mmHg 58%
20:00 +22°C° 0 mm 3 mps 757 mmHg 62%
21:00 +20°C° 0 mm 2 mps 758 mmHg 67%
22:00 +20°C° 0 mm 2 mps 758 mmHg 68%
23:00 +20°C° 0 mm 1 mps 757 mmHg 69%
Show more